Location: Cranbrook Institute of Science
(42.5830°N, 83.2450°W)
Time: 00:34:12
(UTC-04:00)

Daily predictions for brighter satellites

Satellite Brightness Start Highest point End
(mag) Time Altitude Azimuth Time Altitude Azimuth Time Altitude Azimuth
Cosmos 1805 3.3 00:04:16 10° N 00:08:04 75° WNW 00:08:04 75° WNW
Cosmos 1140 Rocket 3.4 00:09:16 62° S 00:10:05 76° ESE 00:15:21 10° NNE
Cosmos 1953 2.6 00:06:10 10° NNW 00:10:05 58° W 00:10:05 58° W
COSMOS 2406 3.1 00:21:08 57° S 00:22:21 82° ESE 00:28:06 10° NNE
Cosmos 1340 3.7 00:24:54 39° NE 00:24:54 39° NE 00:27:35 10° NNE
Cosmos 2084 3.5 00:21:55 10° NW 00:25:43 75° NW 00:25:43 75° NW
Cosmos 2026 Rocket 4.3 00:26:10 45° ESE 00:27:06 48° E 00:32:54 10° NNE
ATLAS 3B R/B 3.7 00:20:35 10° WSW 00:28:03 52° NW 00:35:21 10° NNE
SL-27 R/B 3.8 00:29:06 36° NW 00:29:06 36° NW 00:31:46 10° N
H-2A R/B 3.7 00:27:17 10° NNE 00:29:41 29° ENE 00:29:41 29° ENE
NOSS 3-2 (A) 4.1 00:31:53 36° ESE 00:31:53 36° ESE 00:37:30 10° NE
Cosmos 2221 3.2 00:27:46 10° N 00:31:38 43° ENE 00:31:38 43° ENE
Lacrosse 4 Rocket 3.6 00:35:28 12° W 00:38:19 22° NW 00:41:33 10° N
Okean 3 Rocket 3.6 00:40:01 76° NNE 00:40:01 76° NNE 00:44:08 10° N
Cosmos 614 Rocket 3.8 00:41:06 76° SSW 00:41:32 90° WSW 00:46:46 10° NNE
Cosmos 1607 3.8 00:40:07 56° SSW 00:41:33 81° ESE 00:47:48 10° NE
ISS -0.8 00:42:39 10° WNW 00:45:18 22° NNW 00:47:58 10° NE
Cosmos 1707 3.4 00:46:39 54° NNE 00:46:39 54° NNE 00:49:45 10° N
Cosmos 2208 Rocket 4.2 00:40:46 10° NNW 00:45:50 56° WSW 00:46:06 55° WSW
Cosmos 2082 Rocket 4.2 00:47:00 14° E 00:47:00 14° E 00:49:26 10° ENE
CZ-4B R/B 2.7 00:50:52 42° NNE 00:50:52 42° NNE 00:53:34 10° N
Cosmos 1544 4.5 00:49:17 10° NNW 00:52:01 34° WNW 00:52:01 34° WNW
Meteor 1-24 Rocket 3.8 00:58:29 61° SE 00:59:15 67° E 01:05:10 10° NNE
ALOS 2 2.7 01:02:49 74° N 01:02:49 74° N 01:06:50 10° NNW
USA 238 DEB 4.1 00:58:20 25° SW 01:02:43 64° NW 01:09:45 10° NNE
USA 238 4.0 00:58:30 25° SW 01:02:48 65° NW 01:09:51 10° NNE
Cosmos 1943 Rocket 3.4 01:00:09 10° NW 01:04:44 27° WSW 01:05:02 27° WSW
Cosmos 1417 Rocket 4.3 00:58:52 10° N 01:05:03 86° E 01:06:04 64° SSE
SL-8 R/B 3.7 01:03:48 10° WNW 01:08:29 80° NNW 01:08:29 80° NNW
Cosmos 1553 Rocket 4.0 01:04:15 10° N 01:10:37 73° E 01:11:52 57° SE
Meteor 2-5 Rocket 4.2 01:11:10 47° WSW 01:12:26 56° WNW 01:18:09 10° N
Cosmos 1408 Rocket 3.7 01:14:04 71° N 01:14:04 71° N 01:18:05 10° N
Lacrosse 5 4.1 01:17:08 10° NNW 01:21:13 24° NNE 01:25:18 10° ENE
Cosmos 1656 Rocket 4.3 01:16:42 10° NW 01:22:00 41° WSW 01:22:04 41° WSW
Cosmos 1378 4.2 01:28:42 45° N 01:28:42 45° N 01:31:25 10° N
NOSS 3-3 (A) 4.4 01:20:53 10° NW 01:28:21 88° NE 01:31:11 44° SE
NOSS 3-3 (C) 4.4 01:21:00 10° NW 01:28:28 87° NE 01:31:20 44° SE
Meteor 2-1 Rocket 4.3 01:23:00 10° NNW 01:28:50 63° W 01:29:28 59° SW
Cosmos 2344 3.9 01:27:46 43° SE 01:29:16 48° ESE 01:37:22 10° NE
Cosmos 841 Rocket 4.3 01:26:18 10° N 01:31:20 44° ENE 01:32:26 39° E
CZ-2C R/B 2.9 01:28:58 10° NNE 01:34:26 54° E 01:34:45 53° ESE
S3M 3.9 01:30:28 10° NNW 01:36:42 71° W 01:37:39 61° SW
NOSS 3-2 (C) 3.4 01:35:49 64° SSW 01:36:53 83° ESE 01:43:35 10° NE
CENTAUR R/B 4.0 01:37:24 21° ESE 01:37:33 21° ESE 01:42:15 10° ENE
BREEZE-M DEB (TANK) 4.3 01:23:32 10° WSW 01:39:13 58° NNW 01:43:17 10° ENE
Cosmos 1743 Rocket 3.8 01:40:07 67° NNE 01:40:07 67° NNE 01:44:03 10° N
Cosmos 2266 Rocket 4.1 01:38:31 55° SE 01:39:43 66° E 01:46:05 10° NNE
CZ-4C R/B 2.1 01:40:01 70° SW 01:40:41 84° NW 01:46:44 10° NE
Cosmos 1151 Rocket 4.2 01:36:47 10° N 01:40:37 33° ENE 01:40:37 33° ENE
Timation 2 Rocket 4.1 01:40:49 58° S 01:42:13 77° ESE 01:49:03 10° NNE
Helios 1A Rocket 3.6 01:40:50 10° N 01:44:16 49° NW 01:44:16 49° NW
In-Cosmos 22 4.1 01:44:27 66° SE 01:44:55 70° E 01:50:33 10° NNE
Cosmos 2369 3.6 01:39:50 10° NNW 01:45:32 85° ENE 01:46:13 70° SE
Cosmos 468 Rocket 4.3 01:46:32 10° NNW 01:51:25 52° W 01:51:25 52° W
Genesis I 4.4 01:50:09 10° NNW 01:53:55 39° NE 01:53:59 39° NE
Meteor 2-6 4.5 01:48:51 10° NNW 01:54:25 83° W 01:54:54 74° SSW
Lacrosse 5 rocket 4.5 01:52:31 10° NNW 01:55:08 16° NNE 01:57:50 10° NE
Cosmos 1814 Rocket 4.3 01:51:46 10° NNW 01:56:45 54° W 01:56:45 54° W
Cosmos 1500 Rocket 3.7 01:58:11 68° NNE 01:58:11 68° NNE 02:02:00 10° N
Cosmos 405 Rocket 4.0 02:00:15 34° NW 02:00:15 34° NW 02:03:03 10° N
Cosmos 1328 Rocket 4.1 02:00:59 10° NNW 02:04:37 49° WNW 02:04:37 49° WNW
Cosmos 1908 4.0 02:02:35 10° N 02:05:38 49° NNE 02:05:38 49° NNE
Cosmos 2278 3.8 02:03:07 10° NNW 02:08:37 55° WSW 02:08:40 55° WSW
Cosmos 1486 Rocket 4.3 02:09:38 50° W 02:10:17 53° WNW 02:15:24 10° N
ASTEX 1 3.9 02:05:35 10° NNE 02:10:23 47° E 02:10:51 45° ESE
Cosmos 1980 Rocket 3.5 02:05:58 10° N 02:11:08 36° ENE 02:14:53 17° ESE
Meteor 2-20 4.5 02:10:01 57° SW 02:11:12 70° W 02:17:23 10° N
Cosmos 1818 3.7 02:06:19 10° NW 02:11:26 57° WSW 02:11:26 57° WSW
Cosmos 2228 Rocket 4.3 02:10:08 10° NNW 02:13:23 31° WNW 02:13:23 31° WNW
Cosmos 1515 Rocket 4.1 02:12:00 10° NNW 02:15:49 50° WNW 02:15:49 50° WNW
Cosmos 1437 Rocket 3.4 02:13:39 10° N 02:17:00 54° NE 02:17:00 54° NE
NOSS 3-2 (A) 4.3 02:19:14 27° WSW 02:22:19 46° NW 02:28:48 10° NNE
ISS -0.3 02:20:22 10° NW 02:22:35 17° N 02:24:50 10° NE
Cosmos 1300 4.2 02:20:40 10° NNE 02:24:05 30° ENE 02:24:16 29° E
Cosmos 1441 Rocket 3.6 02:25:52 63° N 02:25:52 63° N 02:29:15 10° N
ERS-2 4.3 02:22:44 10° NE 02:25:09 18° E 02:25:09 18° E
Cosmos 2082 Rocket 2.1 02:28:50 61° SW 02:29:48 79° WNW 02:35:31 10° NNE
Cosmos 1697 Rocket 2.7 02:26:38 10° NNW 02:32:21 81° ENE 02:33:56 49° SE
Cosmos 1763 Rocket 3.9 02:29:33 10° NNW 02:34:31 46° W 02:34:31 46° W
Cosmos 1833 Rocket 2.6 02:40:04 59° SW 02:41:10 82° WNW 02:46:51 10° NNE
Cosmos 540 Rocket 3.6 02:36:33 10° NNW 02:41:44 68° ENE 02:43:16 44° SE
Cosmos 1867 4.2 02:45:00 36° W 02:46:41 48° NW 02:52:00 10° NNE
Aureole 1 Rocket 3.4 02:43:47 10° NNW 02:48:21 87° WSW 02:49:39 54° SSE
Cosmos 1805 Rocket 3.5 02:48:17 75° SE 02:48:31 78° E 02:52:58 10° N
USA 215 3.4 02:42:22 10° NE 02:48:47 57° SE 02:50:36 44° S
CZ-2C R/B 3.7 02:55:22 40° WSW 02:55:50 41° W 03:01:11 10° NNW
Cosmos 1674 3.9 02:57:00 32° WNW 02:57:00 32° WNW 02:59:56 10° N
Landsat 4 3.8 02:57:07 72° NNW 02:57:07 72° NNW 03:00:31 10° NNW
Cosmos 1633 Rocket 3.3 02:56:59 53° SE 02:57:36 59° E 03:01:58 10° NNE
Meteor 1-27 4.3 02:52:12 10° N 02:58:05 81° E 03:00:16 41° SSE
USA 32 4.2 02:54:18 10° NNW 02:59:26 57° W 03:00:13 51° SW
Cosmos 1726 2.4 02:55:59 10° N 02:59:38 58° E 02:59:41 58° E
Cosmos 1707 Rocket 3.3 02:57:34 10° N 03:01:57 80° W 03:02:12 75° SW
Cosmos 1328 4.3 03:04:39 48° WNW 03:04:39 48° WNW 03:08:23 10° N
Lacrosse 5 1.8 02:59:44 10° NW 03:04:50 83° NE 03:09:23 13° SE
Cosmos 1666 Rocket 3.3 03:04:59 73° S 03:05:23 88° E 03:09:44 10° N
Iridium 2 4.2 03:07:02 48° WNW 03:07:02 48° WNW 03:10:24 10° N
SL-14 R/B 3.2 03:07:00 73° ESE 03:07:05 73° E 03:10:56 10° NNE
Cosmos 1656 4.2 03:03:02 10° NW 03:08:19 40° WSW 03:08:39 39° WSW
Cosmos 1437 3.2 03:11:33 61° N 03:11:33 61° N 03:14:24 10° N
SL-16 R/B 3.4 03:06:04 10° NNW 03:11:26 41° ENE 03:16:46 10° SE
CZ-2C R/B 4.3 03:10:04 10° NNW 03:14:16 23° WNW 03:16:17 18° W
IRS-P3 4.1 03:09:41 10° NNE 03:15:03 78° ESE 03:16:50 43° S
Cosmos 1470 Rocket 4.4 03:14:30 33° SE 03:15:54 45° E 03:20:09 10° NNE
SL-16 R/B 4.3 03:11:08 10° ESE 03:16:24 30° ENE 03:21:42 10° N
Resurs 1-4 Rocket 4.3 03:14:47 10° NE 03:18:16 17° E 03:21:44 10° SE
Cosmos 1703 3.6 03:19:12 50° SE 03:19:52 59° E 03:23:48 10° NNE
Cosmos 1626 3.8 03:18:58 22° ESE 03:20:12 27° E 03:23:23 10° NNE
Cosmos 1933 Rocket 4.2 03:19:13 35° SE 03:20:37 48° E 03:24:51 10° NNE
Cosmos 968 Rocket 3.6 03:19:06 42° S 03:20:41 65° ESE 03:25:48 10° NNE
Cosmos 2058 3.5 03:23:26 40° W 03:23:44 41° WNW 03:27:43 10° N
Cosmos 2322 Rocket 2.8 03:19:07 10° NNW 03:24:40 55° ENE 03:30:09 10° SE
Cosmos 2151 4.4 03:25:31 24° W 03:25:50 24° WNW 03:29:21 10° NNW
Cosmos 1745 Rocket 4.0 03:23:23 38° SSW 03:25:59 73° W 03:32:20 10° N
CENTAUR R/B 2.6 03:24:34 35° SW 03:27:21 72° NW 03:34:17 10° NNE
CZ-4C R/B 4.4 03:26:01 10° WNW 03:30:15 21° NNW 03:34:52 10° NNE
Cosmos 371 Rocket 3.2 03:25:52 10° NNW 03:30:46 90° NE 03:33:07 31° SSE
Cosmos 1271 Rocket 3.2 03:29:12 10° N 03:32:56 55° ENE 03:34:24 32° SE
Nadezhda 1 Rocket 3.9 03:26:49 10° NNW 03:32:58 71° W 03:35:51 33° S
USA 161 3.0 03:34:43 27° ENE 03:34:43 27° ENE 03:36:45 10° NNE
CZ-3 Stage 3 4.2 03:17:50 10° WSW 03:34:44 34° SSW 03:39:02 10° SE
Lacrosse 5 rocket 2.5 03:31:04 10° NW 03:35:19 48° NE 03:39:42 10° ESE
Cosmos 1538 Rocket 3.9 03:30:59 10° NNW 03:36:13 80° WSW 03:39:04 28° SSE
Abrixas 3.9 03:36:07 30° NW 03:36:55 35° NNW 03:39:48 10° NE
Cosmos 1709 Rocket 4.3 03:33:47 23° SSE 03:37:46 64° E 03:43:57 10° NNE
Sich 1 3.5 03:38:33 40° WSW 03:39:25 45° WNW 03:43:41 10° N
H-2A R/B 3.2 03:45:25 30° SSW 03:47:21 38° SSE 04:05:09 10° ESE
Okean O Rocket 4.3 03:45:50 10° ENE 03:47:33 12° E 03:49:16 10° ESE
Cosmos 1680 Rocket 4.4 03:44:31 10° N 03:49:34 48° ENE 03:54:36 10° SE
AQUA 3.8 03:46:55 10° N 03:51:40 68° WNW 03:53:37 35° SW
SAR-Lupe-3 4.4 03:51:10 52° SSW 03:51:50 67° WSW 03:55:25 10° NNW
Cosmos 1777 Rocket 4.0 03:50:55 31° S 03:53:34 80° ESE 03:58:52 10° NNE
Cosmos 1862 Rocket 3.5 03:50:25 10° N 03:54:55 82° W 03:57:14 28° S
Cosmos 1980 Rocket 2.8 03:50:01 10° NW 03:55:05 35° WSW 03:56:36 30° SW
Cosmos 2360 Rocket 3.7 03:50:43 10° N 03:55:56 37° ENE 04:01:07 10° SE
CBERS-1 4.1 03:52:57 10° N 03:58:00 62° WNW 04:00:26 30° SW
ERS-2 3.3 03:55:58 10° N 03:59:14 30° WNW 04:00:00 27° W
Cosmos 1300 4.5 03:56:57 10° NW 03:59:19 18° W 03:59:19 18° W
ISS -1.6 03:56:42 10° NW 03:59:44 34° NNE 04:02:46 10° E
Cosmos 773 Rocket 3.9 03:55:14 10° NNW 04:00:23 85° WSW 04:05:18 11° SSE
deb Kosmos-1763 4.2 03:59:30 41° SW 04:00:40 67° WNW 04:04:31 10° NNE
CZ-2D R/B 3.1 03:57:00 10° NNE 04:01:58 41° E 04:06:38 11° SSE
ADEOS 3.5 03:59:11 10° N 04:04:25 76° WNW 04:07:23 26° SSW
IRS-1D 4.0 04:01:36 10° NNE 04:06:54 59° E 04:11:04 16° S
ARIANE 5 R/B 2.8 04:01:53 10° NNE 04:06:59 65° ESE 04:10:38 19° S
NPP 4.2 04:02:11 10° N 04:07:17 44° WNW 04:10:02 25° SW
Cosmos 2221 Rocket 4.4 04:03:23 10° N 04:07:47 51° E 04:12:12 10° SSE
ERS-1 4.5 04:05:14 10° NNE 04:10:22 89° W 04:13:43 22° SSW
Cosmos 2082 Rocket 4.4 04:11:49 10° WNW 04:14:53 15° NW 04:17:56 10° NNW
Cosmos 1697 Rocket 4.4 04:12:42 10° WNW 04:15:31 14° W 04:15:37 14° W
GPS 2-05 Rocket1 4.5 04:16:20 18° SSE 04:16:20 18° SSE 04:18:36 10° ESE
UNK 4.0 04:12:42 10° SSE 04:17:14 68° ENE 04:21:47 10° N
Cosmos 1869 Rocket 4.1 04:17:20 13° S 04:21:05 55° E 04:25:24 10° NNE
Meteor 1-4 Rocket 3.4 04:18:53 10° NNW 04:22:18 33° W 04:23:27 27° SW
SL-08 R/B 4.5 04:21:53 22° WSW 04:23:23 26° W 04:27:29 10° NW
BREEZE-M DEB (TANK) 4.3 04:21:11 10° WNW 04:25:11 65° SSW 04:41:07 10° SE
OAO 3 Rocket 3.9 04:23:54 24° SW 04:25:42 32° S 04:29:54 10° ESE
Cosmos 1455 2.9 04:23:45 10° NNW 04:27:14 35° W 04:28:43 25° SW
Cosmos 2181 Rocket 4.1 04:23:08 10° NNW 04:29:08 58° W 04:34:46 12° SSW
USA 215 3.9 04:25:28 10° NE 04:31:43 50° NNW 04:37:56 10° WSW
ATLAS 5 CENTAUR R/B 2.0 04:32:15 19° SSW 04:35:47 73° ESE 04:41:00 10° NE
COSMOS 2428 4.2 04:32:42 10° NNW 04:38:02 40° ENE 04:43:20 10° SE
Cosmos 1833 4.3 04:34:33 15° SSW 04:39:26 79° ESE 04:45:12 10° NNE
Cosmos 2112 Rocket 3.9 04:38:35 10° NNW 04:43:44 66° WSW 04:48:52 10° S
Cosmos 1869 4.3 04:40:33 10° NNW 04:43:59 28° W 04:46:05 18° SW
UNKNOWN OBJECT B 2.8 04:40:25 10° NNE 04:44:13 77° ESE 04:47:57 11° S
Lacrosse 5 3.3 04:44:00 10° W 04:47:11 17° WSW 04:48:16 16° SW
GENESIS II 4.4 04:45:11 10° NNW 04:49:20 81° NE 04:53:23 10° SE
Cosmos 1703 Rocket 3.7 04:45:29 10° NNW 04:49:44 52° W 04:53:56 10° S
CZ-2D R/B 3.8 04:46:22 10° NNE 04:50:33 65° ESE 04:54:35 10° S
BREEZE-M TANK 2.5 04:48:45 10° W 04:52:18 50° N 04:54:42 10° ENE
ATLAS CENTAUR R/B 3.1 04:49:00 10° NNW 04:53:31 42° NE 04:57:42 10° ESE
SL-16 R/B 3.0 04:50:30 10° NW 04:55:22 30° WSW 05:00:13 10° SSW
Cosmos 1626 3.8 04:53:42 14° WSW 04:55:37 19° WNW 04:58:23 10° NNW
Resurs 1-4 Rocket 2.3 04:53:16 10° N 04:58:31 62° WNW 05:03:45 10° SSW
SL-16 R/B 2.8 04:53:43 10° S 04:59:45 49° W 05:05:49 10° NNW
Meteor 2-3 Rocket 4.1 04:54:35 10° S 05:00:18 70° E 05:06:06 10° NNE
Cosmos 2074 Rocket 4.1 04:57:06 10° SSW 05:03:15 64° W 05:09:29 10° N
CZ-4B R/B 4.0 05:01:08 10° NNE 05:04:58 43° E 05:08:58 10° S
Cosmos 2184 Rocket 4.2 05:00:50 10° SSW 05:07:07 63° W 05:13:26 10° N
Cosmos 2322 Rocket 3.4 05:04:05 10° NW 05:08:14 22° W 05:12:23 10° SSW
Cosmos 1933 4.3 05:05:32 10° NNW 05:09:01 29° W 05:12:30 10° SSW
SME Rocket 3.9 05:04:38 10° S 05:11:36 66° WSW 05:16:18 10° NNW
PSLV R/B 3.8 05:10:01 10° NNE 05:13:56 86° W 05:17:57 10° SSW
Cosmos 2298 Rocket 4.1 05:08:53 10° SSW 05:14:13 77° WNW 05:19:35 10° NNE
Lacrosse 5 rocket 2.4 05:10:41 10° WNW 05:14:27 27° SW 05:18:18 10° S
FALCON 9 R/B 2.3 05:15:17 10° SW 05:16:30 14° S 05:18:01 10° SE
MOZ.5/SAFIR/RUBIN 5/SL-8 4.0 05:13:08 10° SSE 05:17:48 81° ENE 05:22:33 10° N
Cosmos 2219 Rocket 3.7 05:13:56 10° NNW 05:19:14 41° ENE 05:24:30 10° SE
CENTAUR R/B 4.5 05:14:27 10° WNW 05:19:23 22° NNW 05:24:46 10° NNE
Okean 1-7 3.6 05:17:16 10° NNW 05:21:21 38° W 05:25:23 10° SSW
Okean O Rocket 1.7 05:19:58 10° N 05:24:23 65° WNW 05:28:44 10° SSW
Cosmos 1782 3.9 05:24:18 10° N 05:28:14 49° ENE 05:32:07 10° SSE
